Location: Foulognes
(49.1413°N, 0.8183°W)
Time: 12:59:47
(UTC+00:00)

Cosmos 2233 Rocket - Pass Details

Date: 21 October 2019
Orbit: 954 x 990 km, 82.9° (Epoch: 19 November)

Event Time Altitude Azimuth Distance (km) Brightness Sun altitude
Rises 19:24:44 0° 353° (N) 3,695 7.3 -23.9°
Reaches altitude 10° 19:27:22 10° 359° (N) 2,748 6.5 -24.3°
Enters shadow 19:32:55 47° 58° (ENE) 1,282 4.3 -25.2°
